Regional Weather Roundup
Issued by NWS Memphis, TN

Home | Current Version | Previous Version | Text Only | Print | Product List | Glossary On
Versions: 1 2 3 4 5 6 7 8 9 10 11 12 13 14 15 16 17 18 19 20 21 22 23 24 25 26 27 28 29 30 31 32 33 34 35 36 37 38 39 40 41 42 43 44 45 46 47 48 49 50
000
ASUS44 KMEG 280110
RWRMEG
MEMPHIS CWA HOURLY WEATHER ROUNDUP
NATIONAL WEATHER SERVICE MEMPHIS TN
700 PM CST MON FEB 27 2017

...WEST TENNESSEE...

CITY           SKY/WX    TMP DP  RH WIND       PRES   REMARKS
MEMPHIS INTL   PTCLDY    59  51  75 S8        30.08R
NWS MEMPHIS      N/A     59 N/A N/A MISG        N/A
JACKSON        CLEAR     58  48  69 SE5       30.09F
BOLIVAR        PTCLDY    55  50  82 SE6       30.10R
SAVANNAH       CLEAR     55  48  76 S3        30.12S
UNION CITY     CLEAR     55  45  67 CALM      30.08R
PARIS          CLEAR     54  43  66 SE6       30.10F
HUNTINGDON     CLEAR     57  46  67 SE5       30.09F


...EASTERN ARKANSAS...

CITY           SKY/WX    TMP DP  RH WIND       PRES   REMARKS
JONESBORO      CLEAR     57  52  83 S6        30.05R
WEST MEMPHIS   MOCLDY    60  53  77 S16       30.06R
BATESVILLE     CLOUDY    55  50  82 SE3       30.05R
NEWPORT        MOCLDY    57  53  86 SE9       30.04S
WALNUT RIDGE   CLEAR     55  48  76 SW5       30.05R
BLYTHEVILLE    PTCLDY    59  51  75 SE7       30.05F
SEARCY         MOCLDY    55  53  93 CALM      30.05F
STUTTGART      CLOUDY    55  46  71 SE9       30.05S
PINE BLUFF     CLOUDY    56  54  93 SE9       30.04S
MONTICELLO     MOCLDY    58  56  93 SE6       30.04S


...NORTH MISSISSIPPI...

CITY           SKY/WX    TMP DP  RH WIND       PRES   REMARKS
TUPELO         MOCLDY    56  51  84 SE8       30.13F
OXFORD         MOCLDY    54  50  87 SE8       30.12F
BATESVILLE     CLOUDY    56  52  86 CALM      30.11S
OLIVE BRANCH   PTCLDY   N/A N/A N/A SE12      30.08R
TUNICA         CLOUDY    55  52  88 SE8       30.08S
CORINTH        PTCLDY    55  50  82 SE8       30.12R
GREENWOOD      CLEAR     58  54  86 S5        30.08F
COLUMBUS       CLOUDY    57  55  93 SE6       30.15R
STARKVILLE     CLOUDY    55  54  94 SE5       30.15F FOG
GOLDEN TRIANGL CLOUDY    55  52  88 SE9       30.12R


...SOUTHEAST MISSOURI...

CITY           SKY/WX    TMP DP  RH WIND       PRES   REMARKS
KENNETT        MOCLDY    59  52  77 SE7       30.04S
MALDEN         CLEAR     57  50  77 S6        30.06F
WEST PLAINS    CLOUDY    54  48  80 SE10      30.00S
POPLAR BLUFF   PTCLDY    56  50  80 S5        30.04F
CAPE GIRARDEAU PTCLDY    54  46  74 S7        30.04F


...NORTHWEST ALABAMA...

CITY           SKY/WX    TMP DP  RH WIND       PRES   REMARKS
MUSCLE SHOALS  PTCLDY    54  48  80 SE6       30.18R


...MIDDLE TENNESSEE...

CITY           SKY/WX    TMP DP  RH WIND       PRES   REMARKS
NASHVILLE      CLOUDY    54  44  69 S9        30.18S
CLARKSVILLE    CLEAR     53  42  66 SE7       30.13R
COLUMBIA       CLEAR     52  52 100 SE5       30.16S


...WESTERN KENTUCKY...

CITY           SKY/WX    TMP DP  RH WIND       PRES   REMARKS
PADUCAH        PTCLDY    58  45  62 SE5       30.08R
FORT CAMPBELL  CLEAR     58  43  56 SE6       30.12S


...CENTRAL ARKANSAS...

CITY           SKY/WX    TMP DP  RH WIND       PRES   REMARKS
LITTLE ROCK    MOCLDY    56  55  97 SE8       30.03R


SKY/WX REPORTED AS FAIR MEANS FEW OR NO CLOUDS BELOW
12 THOUSAND FEET.




USA.gov is the U.S. government's official web portal to all federal, state and local government web resources and services.